Location: Unspecified
(51.0950°N, 12.9690°E)
Time: 15:29:36
(UTC+00:00)

Cosmos 1725 Rocket - Pass Details

Date: 28 October 2021
Orbit: 961 x 991 km, 82.9° (Epoch: 26 November)

Event Time Altitude Azimuth Distance (km) Brightness Sun altitude
Rises 19:14:56 0° 200° (SSW) 3,658 7.0 -32.5°
Reaches altitude 10° 19:17:29 10° 204° (SSW) 2,711 6.3 -32.9°
Enters shadow 19:18:03 13° 205° (SSW) 2,505 6.1 -33.0°
Exits shadow 19:23:50 61° 294° (WNW) 1,096 4.3 -33.8°
Drops below altitude 10° 19:29:45 10° 5° (N) 2,713 6.5 -34.7°
Sets 19:32:19 0° 9° (N) 3,662 7.2 -35.0°
